DLH572 EDDF-FAOR

Flight info

Callsign DLH572
Flight time N/A
Altitude 33000
Route ANEKI2L/18 ANEKI Y163 NATOR/N0493F350 DCT TRA DCT RIPUS DCT GERSA DCT SOSON DCT ODINA DCT PIDAD DCT TALEP DCT VAREK DCT ERPIN DCT ETOIL DCT CIRTA UA605 CSO UM2 DJA/N0493F370 UB730 DIR UA607 FL UM731 ILDIV/N0490F390 UM731 RUDAS UQ25 ITROL/N0489F400 UQ44 AVAGO AVAGO1C
Aircraft B748/H-SDE3FGHIM1M2RWXY/LB1

Departure

Time 2026-05-06 22:17
Airport Frankfurt Main Airport (EDDF)

Arrival

Time N/A
Airport O.R. Tambo International Airport (FAOR)
Time Latitude Longitude Altitude Speed Heading
2026-05-06 21:34 50.04644 8.57278 365 ft 0 kts 300°
2026-05-06 22:06 50.04644 8.57279 356 ft 1 kts 300°
2026-05-06 22:06 50.04637 8.57290 364 ft 3 kts 278°
2026-05-06 22:06 50.04636 8.57301 363 ft 3 kts 260°
2026-05-06 22:06 50.04638 8.57320 363 ft 2 kts 282°
2026-05-06 22:07 50.04634 8.57346 358 ft 3 kts 262°
2026-05-06 22:07 50.04635 8.57367 361 ft 3 kts 232°
2026-05-06 22:07 50.04644 8.57383 365 ft 3 kts 203°
2026-05-06 22:07 50.04662 8.57394 360 ft 3 kts 195°
2026-05-06 22:08 50.04668 8.57396 360 ft 0 kts 195°
2026-05-06 22:11 50.04656 8.57391 364 ft 4 kts 195°
2026-05-06 22:11 50.04621 8.57376 364 ft 6 kts 197°
2026-05-06 22:11 50.04601 8.57361 362 ft 3 kts 207°
2026-05-06 22:11 50.04581 8.57341 361 ft 2 kts 218°
2026-05-06 22:12 50.04578 8.57331 361 ft 2 kts 237°
2026-05-06 22:12 50.04567 8.57298 360 ft 4 kts 247°
2026-05-06 22:12 50.04548 8.57224 364 ft 10 kts 248°
2026-05-06 22:12 50.04514 8.57091 361 ft 16 kts 249°
2026-05-06 22:13 50.04470 8.56902 363 ft 21 kts 250°
2026-05-06 22:13 50.04415 8.56666 358 ft 25 kts 245°
2026-05-06 22:13 50.04352 8.56404 361 ft 28 kts 251°
2026-05-06 22:13 50.04277 8.56096 363 ft 32 kts 250°
2026-05-06 22:14 50.04199 8.55750 360 ft 36 kts 251°
2026-05-06 22:14 50.04104 8.55379 361 ft 38 kts 250°
2026-05-06 22:14 50.04012 8.54984 364 ft 40 kts 249°
2026-05-06 22:14 50.03914 8.54569 362 ft 42 kts 249°
2026-05-06 22:15 50.03785 8.54154 362 ft 42 kts 248°
2026-05-06 22:15 50.03683 8.53727 363 ft 42 kts 250°
2026-05-06 22:15 50.03574 8.53290 365 ft 44 kts 248°
2026-05-06 22:15 50.03473 8.52865 363 ft 37 kts 247°
2026-05-06 22:16 50.03336 8.52594 365 ft 20 kts 191°
2026-05-06 22:16 50.03178 8.52587 362 ft 26 kts 182°
2026-05-06 22:16 50.02897 8.52597 365 ft 75 kts 179°
2026-05-06 22:16 50.02089 8.52601 364 ft 155 kts 179°
2026-05-06 22:17 50.00797 8.52607 462 ft 207 kts 181°
2026-05-06 22:17 49.99392 8.52667 731 ft 198 kts 179°
2026-05-06 22:17 49.97993 8.52868 794 ft 209 kts 178°
2026-05-06 22:17 49.96530 8.52868 1434 ft 213 kts 183°
2026-05-06 22:18 49.95029 8.52910 2237 ft 220 kts 180°
2026-05-06 22:18 49.93473 8.53029 2939 ft 229 kts 179°
2026-05-06 22:18 49.91847 8.53164 3696 ft 236 kts 180°
2026-05-06 22:18 49.90239 8.53281 4015 ft 236 kts 180°
2026-05-06 22:19 49.88598 8.53397 4005 ft 232 kts 180°
2026-05-06 22:19 49.86979 8.53513 4003 ft 235 kts 180°
2026-05-06 22:19 49.85331 8.53631 4364 ft 237 kts 180°
2026-05-06 22:19 49.83721 8.53750 5293 ft 233 kts 181°
2026-05-06 22:20 49.82100 8.53866 6148 ft 233 kts 181°
2026-05-06 22:20 49.80464 8.53982 6916 ft 236 kts 181°
2026-05-06 22:20 49.78813 8.54101 7632 ft 239 kts 181°
2026-05-06 22:20 49.77167 8.54012 8253 ft 244 kts 189°
2026-05-06 22:21 49.75422 8.53764 8628 ft 261 kts 187°
2026-05-06 22:21 49.73550 8.53530 9101 ft 274 kts 187°
2026-05-06 22:21 49.71633 8.53285 9767 ft 279 kts 187°
2026-05-06 22:21 49.69672 8.53024 10335 ft 286 kts 187°
2026-05-06 22:22 49.67632 8.52749 10666 ft 302 kts 187°
2026-05-06 22:22 49.65471 8.52463 10942 ft 321 kts 187°
2026-05-06 22:22 49.63185 8.52163 11220 ft 340 kts 187°
2026-05-06 22:22 49.60784 8.51847 11498 ft 359 kts 186°
2026-05-06 22:23 49.58260 8.51516 12126 ft 368 kts 186°
2026-05-06 22:23 49.55689 8.51178 12762 ft 377 kts 186°
2026-05-06 22:23 49.53052 8.50832 12953 ft 380 kts 186°
2026-05-06 22:23 49.50420 8.50486 13469 ft 383 kts 186°
2026-05-06 22:24 49.47759 8.50137 14309 ft 384 kts 186°
2026-05-06 22:24 49.45113 8.49790 15085 ft 387 kts 186°
2026-05-06 22:24 49.42390 8.49434 15842 ft 391 kts 186°
2026-05-06 22:24 49.39693 8.49082 16577 ft 394 kts 186°
2026-05-06 22:25 49.36961 8.48725 17293 ft 398 kts 186°
2026-05-06 22:25 49.34178 8.48362 18021 ft 401 kts 186°
2026-05-06 22:25 49.31387 8.47998 18642 ft 405 kts 186°
2026-05-06 22:25 49.28563 8.47632 19237 ft 408 kts 185°
2026-05-06 22:26 49.25731 8.47265 19830 ft 411 kts 185°
2026-05-06 22:26 49.22860 8.46890 20371 ft 414 kts 185°
2026-05-06 22:26 49.19990 8.46516 20923 ft 417 kts 185°
2026-05-06 22:26 49.17081 8.46138 21445 ft 420 kts 185°
2026-05-06 22:27 49.14162 8.45760 21968 ft 423 kts 185°
2026-05-06 22:27 49.11204 8.45377 22474 ft 426 kts 185°
2026-05-06 22:27 49.08291 8.45000 22952 ft 429 kts 186°
2026-05-06 22:27 49.05322 8.44403 23441 ft 430 kts 193°
2026-05-06 22:28 49.02402 8.43371 23831 ft 433 kts 194°
2026-05-06 22:28 48.99448 8.42333 24223 ft 435 kts 193°
2026-05-06 22:28 48.96484 8.41305 24606 ft 438 kts 193°
2026-05-06 22:28 48.93509 8.40276 24972 ft 440 kts 193°
2026-05-06 22:29 48.90519 8.39236 25330 ft 442 kts 193°
2026-05-06 22:29 48.87523 8.38194 25701 ft 444 kts 193°
2026-05-06 22:29 48.84534 8.37159 26050 ft 446 kts 193°
2026-05-06 22:29 48.81506 8.36113 26433 ft 448 kts 193°
2026-05-06 22:30 48.78462 8.35061 26792 ft 450 kts 193°
2026-05-06 22:30 48.75417 8.33973 27133 ft 452 kts 194°
2026-05-06 22:30 48.72348 8.32817 27492 ft 454 kts 194°
2026-05-06 22:30 48.69278 8.31677 27843 ft 456 kts 194°
2026-05-06 22:31 48.66173 8.30562 28196 ft 458 kts 194°
2026-05-06 22:31 48.63075 8.29447 28540 ft 460 kts 194°
2026-05-06 22:31 48.59989 8.28319 28895 ft 462 kts 194°
2026-05-06 22:31 48.56868 8.27176 29236 ft 464 kts 194°
2026-05-06 22:32 48.53749 8.26048 29581 ft 465 kts 194°
2026-05-06 22:32 48.50547 8.25059 29924 ft 468 kts 186°
2026-05-06 22:32 48.47291 8.24928 30254 ft 470 kts 176°
2026-05-06 22:32 48.44029 8.25587 30546 ft 474 kts 172°
2026-05-06 22:33 48.40766 8.26379 30826 ft 476 kts 172°
2026-05-06 22:33 48.37534 8.27169 31123 ft 478 kts 172°
2026-05-06 22:33 48.34217 8.27974 31395 ft 480 kts 172°
2026-05-06 22:33 48.30892 8.28775 31703 ft 482 kts 173°
2026-05-06 22:34 48.27641 8.29560 32140 ft 480 kts 172°
2026-05-06 22:34 48.24357 8.30355 32587 ft 479 kts 173°
2026-05-06 22:34 48.21061 8.31150 32937 ft 480 kts 173°
2026-05-06 22:34 48.17756 8.31944 32910 ft 476 kts 173°
2026-05-06 22:35 48.11256 8.33519 32922 ft 473 kts 173°
2026-05-06 22:35 48.04803 8.35085 32932 ft 472 kts 173°
2026-05-06 22:36 47.98294 8.36655 32941 ft 472 kts 173°
2026-05-06 22:36 47.91859 8.38208 32942 ft 472 kts 173°
2026-05-06 22:37 47.85367 8.39767 32940 ft 472 kts 173°
2026-05-06 22:37 47.78875 8.41325 32950 ft 471 kts 173°
2026-05-06 22:38 47.72419 8.42869 32959 ft 471 kts 174°
2026-05-06 22:38 47.65983 8.44139 32968 ft 469 kts 177°
2026-05-06 22:39 47.59499 8.45091 32966 ft 468 kts 177°
2026-05-06 22:39 47.53038 8.46048 32961 ft 467 kts 178°
2026-05-06 22:40 47.46577 8.46993 32963 ft 466 kts 178°
2026-05-06 22:40 47.40120 8.47943 32958 ft 466 kts 178°
2026-05-06 22:41 47.30497 8.49348 32960 ft 464 kts 178°
2026-05-06 22:42 47.25164 8.50126 32954 ft 464 kts 178°
2026-05-06 22:42 47.17701 8.51214 32959 ft 463 kts 178°
2026-05-06 22:43 47.12341 8.51993 32961 ft 463 kts 178°
2026-05-06 22:43 47.05966 8.52918 32954 ft 462 kts 178°
2026-05-06 22:44 46.98517 8.53995 32969 ft 460 kts 179°
2026-05-06 22:44 46.93236 8.54755 32959 ft 457 kts 178°
2026-05-06 22:45 46.86925 8.55664 32964 ft 455 kts 179°
2026-05-06 22:45 46.79584 8.56715 32956 ft 456 kts 179°
2026-05-06 22:46 46.74336 8.57468 32958 ft 455 kts 179°
2026-05-06 22:46 46.68066 8.58363 32957 ft 453 kts 179°
2026-05-06 22:46 46.64909 8.58812 33142 ft 455 kts 178°
2026-05-06 22:47 46.60714 8.59406 32973 ft 458 kts 178°
2026-05-06 22:47 46.54404 8.60308 32983 ft 457 kts 178°
2026-05-06 22:48 46.49153 8.61048 32979 ft 456 kts 178°
2026-05-06 22:48 46.41790 8.62092 32986 ft 456 kts 178°
2026-05-06 22:49 46.36513 8.62835 32971 ft 455 kts 179°
2026-05-06 22:49 46.30252 8.63718 32989 ft 455 kts 179°
2026-05-06 22:50 46.23963 8.64600 32973 ft 454 kts 179°
2026-05-06 22:50 46.17676 8.65482 32953 ft 453 kts 179°
2026-05-06 22:51 46.11390 8.66359 32947 ft 453 kts 179°
2026-05-06 22:51 46.05141 8.66588 32951 ft 450 kts 183°
2026-05-06 22:52 45.98929 8.66728 32957 ft 449 kts 183°
2026-05-06 22:52 45.92678 8.66843 32950 ft 449 kts 184°
2026-05-06 22:53 45.86436 8.66971 32959 ft 449 kts 184°
2026-05-06 22:53 45.80234 8.67091 32935 ft 449 kts 184°
2026-05-06 22:54 45.73944 8.67216 32930 ft 448 kts 184°
2026-05-06 22:54 45.67757 8.67337 32934 ft 448 kts 184°
2026-05-06 22:55 45.61512 8.67460 32936 ft 448 kts 184°
2026-05-06 22:55 45.55275 8.67583 32932 ft 448 kts 184°
2026-05-06 22:56 45.49085 8.67703 32934 ft 448 kts 184°
2026-05-06 22:56 45.42855 8.67825 32929 ft 448 kts 184°
2026-05-06 22:57 45.36621 8.67946 32951 ft 448 kts 184°
2026-05-06 22:57 45.30382 8.68067 32935 ft 448 kts 184°
2026-05-06 22:58 45.24180 8.68187 32927 ft 449 kts 184°
2026-05-06 22:58 45.17927 8.68308 32908 ft 450 kts 184°
2026-05-06 22:59 45.11669 8.68429 32910 ft 450 kts 184°
2026-05-06 22:59 45.05402 8.68549 32911 ft 451 kts 184°
2026-05-06 23:00 44.99153 8.68669 32905 ft 452 kts 184°
2026-05-06 23:00 44.92844 8.68790 32911 ft 452 kts 184°
2026-05-06 23:01 44.86600 8.68909 32926 ft 452 kts 184°
2026-05-06 23:01 44.80285 8.69030 32924 ft 453 kts 184°
2026-05-06 23:02 44.73973 8.69150 32926 ft 453 kts 184°
2026-05-06 23:02 44.67666 8.69270 32928 ft 453 kts 184°
2026-05-06 23:03 44.61415 8.69388 32931 ft 454 kts 184°
2026-05-06 23:03 44.55096 8.69508 32929 ft 454 kts 184°
2026-05-06 23:04 44.48789 8.69627 32947 ft 453 kts 184°
2026-05-06 23:04 44.42467 8.69746 32943 ft 454 kts 184°
2026-05-06 23:05 44.36194 8.69864 32932 ft 454 kts 184°
2026-05-06 23:05 44.29878 8.69982 32931 ft 454 kts 184°
2026-05-06 23:06 44.23570 8.70100 32925 ft 454 kts 184°
2026-05-06 23:06 44.17236 8.70218 32924 ft 454 kts 184°
2026-05-06 23:07 44.10982 8.70335 32919 ft 454 kts 184°
2026-05-06 23:07 44.04671 8.70452 32923 ft 453 kts 185°
2026-05-06 23:08 43.98358 8.70569 32920 ft 453 kts 185°
2026-05-06 23:08 43.92055 8.70686 32918 ft 452 kts 185°
2026-05-06 23:09 43.85808 8.70801 32925 ft 452 kts 185°
2026-05-06 23:09 43.79516 8.70918 32945 ft 452 kts 185°
2026-05-06 23:10 43.73231 8.71032 32935 ft 452 kts 185°
2026-05-06 23:10 43.66944 8.71148 32932 ft 452 kts 185°
2026-05-06 23:11 43.60702 8.71252 32940 ft 451 kts 186°
2026-05-06 23:11 43.54433 8.71208 32943 ft 451 kts 186°
2026-05-06 23:12 43.48172 8.70948 32967 ft 445 kts 194°
2026-05-06 23:12 43.42290 8.68650 32961 ft 436 kts 208°
2026-05-06 23:13 43.36859 8.65147 32960 ft 436 kts 208°
2026-05-06 23:13 43.31396 8.61613 32956 ft 436 kts 209°
2026-05-06 23:14 43.25909 8.58066 32958 ft 437 kts 209°
2026-05-06 23:14 43.20405 8.54522 32954 ft 437 kts 209°
2026-05-06 23:15 43.14897 8.50976 32956 ft 437 kts 209°
2026-05-06 23:15 43.09437 8.47472 32960 ft 437 kts 209°
2026-05-06 23:16 43.03928 8.43942 32963 ft 437 kts 209°
2026-05-06 23:16 42.98415 8.40417 32964 ft 437 kts 209°
2026-05-06 23:17 42.92906 8.36900 32963 ft 437 kts 209°
2026-05-06 23:17 42.88564 8.34134 32966 ft 438 kts 209°
2026-05-06 23:18 42.83056 8.30632 32966 ft 438 kts 209°
2026-05-06 23:18 42.77524 8.27120 33050 ft 440 kts 209°
2026-05-06 23:18 42.74736 8.25353 33419 ft 441 kts 209°
2026-05-06 23:19 42.71969 8.23603 33796 ft 440 kts 209°
2026-05-06 23:19 42.69190 8.21845 34134 ft 440 kts 209°
2026-05-06 23:19 42.66449 8.20113 34409 ft 440 kts 209°
2026-05-06 23:19 42.63665 8.18355 34680 ft 441 kts 209°
2026-05-06 23:20 42.60885 8.16603 34958 ft 441 kts 209°
2026-05-06 23:20 42.55314 8.13096 34997 ft 439 kts 209°
2026-05-06 23:21 42.49790 8.09623 34993 ft 438 kts 209°
2026-05-06 23:21 42.44255 8.06152 34993 ft 439 kts 209°
2026-05-06 23:22 42.38739 8.02699 34989 ft 439 kts 209°
2026-05-06 23:22 42.33205 7.99242 34990 ft 439 kts 209°
2026-05-06 23:23 42.27578 7.96006 34993 ft 440 kts 207°
2026-05-06 23:23 42.21925 7.92881 34993 ft 440 kts 207°
2026-05-06 23:24 42.16257 7.89768 34988 ft 441 kts 207°
2026-05-06 23:24 42.10583 7.86652 34991 ft 441 kts 207°
2026-05-06 23:25 42.04939 7.83560 34995 ft 440 kts 207°
2026-05-06 23:25 41.99265 7.80457 34992 ft 441 kts 207°
2026-05-06 23:26 41.93586 7.77358 34989 ft 441 kts 207°
2026-05-06 23:26 41.89336 7.75043 34998 ft 441 kts 207°
2026-05-06 23:27 41.83640 7.71944 35000 ft 442 kts 207°
2026-05-06 23:27 41.77932 7.68845 34996 ft 442 kts 207°
2026-05-06 23:28 41.72265 7.65775 34997 ft 442 kts 207°
2026-05-06 23:28 41.66571 7.62696 34994 ft 443 kts 207°
2026-05-06 23:29 41.60854 7.59610 34995 ft 442 kts 207°
2026-05-06 23:29 41.54947 7.57133 35016 ft 454 kts 195°
2026-05-06 23:30 41.48714 7.55700 35017 ft 454 kts 196°
2026-05-06 23:30 41.42471 7.54260 35008 ft 455 kts 196°
2026-05-06 23:31 41.36287 7.52843 35005 ft 455 kts 196°
2026-05-06 23:31 41.30053 7.51412 35001 ft 455 kts 196°
2026-05-06 23:32 41.23832 7.49990 35006 ft 455 kts 196°
2026-05-06 23:32 41.17540 7.48552 35004 ft 456 kts 195°
2026-05-06 23:33 41.11331 7.47138 35000 ft 456 kts 195°
2026-05-06 23:33 41.05077 7.45715 34992 ft 456 kts 195°
2026-05-06 23:34 40.98819 7.44294 34995 ft 457 kts 195°
2026-05-06 23:34 40.92539 7.42871 34996 ft 458 kts 195°
2026-05-06 23:35 40.86299 7.41461 34994 ft 459 kts 195°
2026-05-06 23:35 40.80006 7.40040 34994 ft 459 kts 195°
2026-05-06 23:36 40.73721 7.38624 34997 ft 459 kts 195°
2026-05-06 23:36 40.67416 7.37207 34998 ft 459 kts 195°
2026-05-06 23:37 40.61107 7.35791 34993 ft 460 kts 195°
2026-05-06 23:37 40.54852 7.34390 34992 ft 460 kts 195°
2026-05-06 23:38 40.48536 7.32978 34995 ft 460 kts 195°
2026-05-06 23:38 40.42224 7.31569 34986 ft 460 kts 195°
2026-05-06 23:39 40.35912 7.30164 34991 ft 461 kts 195°
2026-05-06 23:39 40.29622 7.28765 34988 ft 461 kts 195°
2026-05-06 23:40 40.23292 7.27361 34987 ft 462 kts 195°
2026-05-06 23:40 40.16957 7.25959 34992 ft 462 kts 195°
2026-05-06 23:41 40.10621 7.24558 34988 ft 462 kts 195°
2026-05-06 23:41 40.04280 7.23159 34989 ft 463 kts 195°
2026-05-06 23:42 39.97972 7.21770 34989 ft 463 kts 195°
2026-05-06 23:42 39.91613 7.20372 34984 ft 464 kts 195°
2026-05-06 23:43 39.85239 7.18974 34983 ft 464 kts 195°
2026-05-06 23:43 39.78879 7.17582 34983 ft 465 kts 195°
2026-05-06 23:44 39.72523 7.16214 34986 ft 467 kts 192°
2026-05-06 23:44 39.66086 7.15069 34985 ft 467 kts 193°
2026-05-06 23:45 39.59644 7.13905 34986 ft 468 kts 193°
2026-05-06 23:45 39.53186 7.12759 34994 ft 468 kts 193°
2026-05-06 23:46 39.46758 7.11607 34990 ft 469 kts 193°
2026-05-06 23:46 39.40286 7.10459 34989 ft 469 kts 193°
2026-05-06 23:47 39.33821 7.09307 34981 ft 470 kts 193°
2026-05-06 23:47 39.27333 7.08158 34978 ft 470 kts 193°
2026-05-06 23:48 39.20872 7.07013 34975 ft 470 kts 194°
2026-05-06 23:48 39.14436 7.05877 34980 ft 470 kts 194°
2026-05-06 23:49 39.07935 7.04730 34976 ft 470 kts 194°
2026-05-06 23:49 39.01457 7.03589 34979 ft 470 kts 194°
2026-05-06 23:50 38.95006 7.02504 34975 ft 471 kts 193°
2026-05-06 23:50 38.85280 7.00936 34977 ft 470 kts 194°
2026-05-06 23:51 38.78768 6.99885 34972 ft 470 kts 194°
2026-05-06 23:51 38.72298 6.98837 34974 ft 469 kts 194°
2026-05-06 23:52 38.65886 6.97801 34976 ft 468 kts 194°
2026-05-06 23:52 38.59432 6.96761 34968 ft 467 kts 195°
2026-05-06 23:53 38.52974 6.95721 34965 ft 466 kts 195°
2026-05-06 23:53 38.46544 6.94689 34979 ft 465 kts 195°
2026-05-06 23:54 38.40145 6.93663 34971 ft 464 kts 196°
2026-05-06 23:54 38.33779 6.92644 34960 ft 462 kts 197°
2026-05-06 23:55 38.27426 6.91629 34957 ft 460 kts 197°
2026-05-06 23:55 38.21072 6.90615 34958 ft 458 kts 198°
2026-05-06 23:56 38.14764 6.89612 34957 ft 456 kts 198°
2026-05-06 23:56 38.08478 6.88611 34957 ft 454 kts 199°
2026-05-06 23:57 38.02274 6.87627 34957 ft 452 kts 199°
2026-05-06 23:57 37.96026 6.86637 34954 ft 450 kts 200°
2026-05-06 23:58 37.89838 6.85659 34950 ft 449 kts 200°
2026-05-06 23:58 37.83684 6.84686 34949 ft 448 kts 200°
2026-05-06 23:59 37.77506 6.83713 34950 ft 447 kts 200°
2026-05-06 23:59 37.71341 6.82743 34945 ft 446 kts 201°
2026-05-07 00:00 37.65187 6.81776 34944 ft 444 kts 201°
2026-05-07 00:00 37.59051 6.80813 34950 ft 444 kts 201°
2026-05-07 00:01 37.52981 6.79863 34944 ft 443 kts 201°
2026-05-07 00:01 37.46855 6.78906 34940 ft 442 kts 201°
2026-05-07 00:02 37.40749 6.77952 34944 ft 441 kts 201°
2026-05-07 00:02 37.34661 6.77004 34939 ft 441 kts 201°
2026-05-07 00:03 37.28623 6.76065 34940 ft 440 kts 201°
2026-05-07 00:03 37.22560 6.75123 34938 ft 439 kts 201°
2026-05-07 00:04 37.16505 6.74184 34934 ft 438 kts 201°
2026-05-07 00:04 37.10498 6.73254 34931 ft 438 kts 201°
2026-05-07 00:05 37.04414 6.72314 34944 ft 438 kts 201°
2026-05-07 00:05 36.98409 6.71388 34944 ft 437 kts 201°
2026-05-07 00:06 36.92391 6.70464 34953 ft 435 kts 201°
2026-05-07 00:06 36.86353 6.69529 34940 ft 437 kts 201°
2026-05-07 00:07 36.80372 6.68615 34938 ft 436 kts 201°
2026-05-07 00:07 36.74351 6.67688 34936 ft 436 kts 200°
2026-05-07 00:08 36.68325 6.66769 34936 ft 435 kts 201°
2026-05-07 00:08 36.62362 6.65855 34938 ft 434 kts 200°
2026-05-07 00:09 36.56381 6.64944 34958 ft 434 kts 200°
2026-05-07 00:09 36.50387 6.64028 34971 ft 435 kts 200°
2026-05-07 00:10 36.44385 6.63117 34974 ft 435 kts 200°
2026-05-07 00:10 36.38382 6.62205 35005 ft 435 kts 200°
2026-05-07 00:11 36.32393 6.61326 34998 ft 439 kts 197°
2026-05-07 00:11 36.29297 6.61268 35001 ft 452 kts 190°
2026-05-07 00:11 36.26123 6.61677 35003 ft 466 kts 184°
2026-05-07 00:12 36.19700 6.63301 34998 ft 471 kts 182°
2026-05-07 00:12 36.13279 6.64934 34983 ft 471 kts 182°
2026-05-07 00:13 36.06867 6.66573 34967 ft 472 kts 182°
2026-05-07 00:13 36.00464 6.68202 34970 ft 473 kts 181°
2026-05-07 00:14 35.94025 6.69841 34948 ft 472 kts 181°
2026-05-07 00:14 35.87593 6.71472 34944 ft 472 kts 181°
2026-05-07 00:15 35.81164 6.73102 34946 ft 472 kts 181°
2026-05-07 00:15 35.74768 6.74720 34941 ft 472 kts 181°
2026-05-07 00:16 35.68351 6.76341 34942 ft 471 kts 181°
2026-05-07 00:16 35.61927 6.77960 34940 ft 470 kts 181°
2026-05-07 00:17 35.55525 6.79573 34945 ft 469 kts 181°
2026-05-07 00:17 35.49151 6.81174 34942 ft 468 kts 181°
2026-05-07 00:18 35.42800 6.82766 34943 ft 469 kts 181°
2026-05-07 00:18 35.36404 6.84370 34939 ft 469 kts 181°
2026-05-07 00:19 35.30019 6.85965 34953 ft 469 kts 181°
2026-05-07 00:19 35.23619 6.87565 34934 ft 469 kts 181°
2026-05-07 00:20 35.17260 6.89149 34924 ft 469 kts 181°
2026-05-07 00:20 35.10862 6.90742 34924 ft 469 kts 180°
2026-05-07 00:21 35.04437 6.92338 34903 ft 470 kts 180°
2026-05-07 00:21 34.98034 6.93928 34897 ft 471 kts 180°
2026-05-07 00:22 34.91595 6.95522 34880 ft 471 kts 180°
2026-05-07 00:22 34.85218 6.97099 34871 ft 472 kts 180°
2026-05-07 00:23 34.78767 6.98692 34862 ft 474 kts 180°
2026-05-07 00:23 34.72298 7.00343 34844 ft 475 kts 179°
2026-05-07 00:24 34.65823 7.01976 34833 ft 475 kts 179°
2026-05-07 00:24 34.59392 7.03601 34824 ft 476 kts 179°
2026-05-07 00:25 34.52911 7.05236 34831 ft 476 kts 179°
2026-05-07 00:25 34.46424 7.06868 34819 ft 477 kts 179°
2026-05-07 00:26 34.39928 7.08501 34814 ft 477 kts 179°
2026-05-07 00:26 34.33456 7.10124 34806 ft 477 kts 179°
2026-05-07 00:27 34.26951 7.11755 34802 ft 478 kts 179°
2026-05-07 00:27 34.20443 7.13382 34806 ft 479 kts 179°
2026-05-07 00:28 34.13930 7.15009 34805 ft 479 kts 179°
2026-05-07 00:28 34.07396 7.16638 34806 ft 479 kts 179°
2026-05-07 00:29 34.00908 7.18254 34801 ft 479 kts 179°
2026-05-07 00:30 33.87806 7.21508 34806 ft 481 kts 179°
2026-05-07 00:30 33.81257 7.23130 34800 ft 481 kts 179°
2026-05-07 00:31 33.74742 7.24742 34797 ft 482 kts 179°
2026-05-07 00:31 33.68177 7.26364 34799 ft 482 kts 179°
2026-05-07 00:32 33.61601 7.27986 34795 ft 482 kts 179°
2026-05-07 00:32 33.55028 7.29605 34801 ft 482 kts 179°
2026-05-07 00:33 33.48433 7.31226 34802 ft 482 kts 179°
2026-05-07 00:33 33.41900 7.32830 34796 ft 483 kts 179°
2026-05-07 00:34 33.35321 7.34442 34795 ft 484 kts 179°
2026-05-07 00:34 33.28695 7.36064 34804 ft 485 kts 178°
2026-05-07 00:35 33.22128 7.37668 34796 ft 486 kts 178°
2026-05-07 00:35 33.15492 7.39288 34795 ft 487 kts 178°
2026-05-07 00:36 33.08859 7.40903 34795 ft 487 kts 178°
2026-05-07 00:36 33.02215 7.42519 34796 ft 488 kts 178°
2026-05-07 00:37 32.95600 7.44126 34802 ft 488 kts 178°
2026-05-07 00:37 32.88951 7.45738 34799 ft 489 kts 178°
2026-05-07 00:38 32.82266 7.47356 34789 ft 489 kts 178°
2026-05-07 00:38 32.75613 7.48965 34788 ft 489 kts 178°
2026-05-07 00:39 32.68993 7.50563 34794 ft 488 kts 178°
2026-05-07 00:39 32.62343 7.52166 34789 ft 488 kts 178°
2026-05-07 00:40 32.55696 7.53765 34787 ft 487 kts 178°
2026-05-07 00:40 32.49049 7.55362 34787 ft 488 kts 178°